Location: Errabaliem
(16.8108°N, 80.4255°E)
Time: 07:24:37
(UTC+00:00)

Okean O Rocket - Pass Details

Date: 05 August 2024
Orbit: 618 x 638 km, 98.1° (Epoch: 10 September)

Event Time Altitude Azimuth Distance (km) Brightness Sun altitude
Exits shadow 15:35:07 28° 307° (NW) 1,155 3.4 -32.6°
Drops below altitude 10° 15:37:32 10° 330° (NNW) 1,987 4.8 -33.1°
Sets 15:39:50 0° 338° (NNW) 2,898 5.7 -33.5°
